Regional Weather Roundup
Issued by NWS

Home | Current Version | Previous Version | Text Only | Print | Product List | Glossary Off
Versions: 1 2 3 4 5 6 7 8 9 10 11 12 13 14 15 16 17 18 19 20 21 22 23 24 25 26 27 28 29 30 31 32 33 34 35 36 37 38 39 40 41 42 43 44 45 46 47 48 49 50

000
ASUS43 KFSD 101902
RWRSD

WEATHER ROUNDUP FOR SOUTH DAKOTA
NATIONAL WEATHER SERVICE SIOUX FALLS SD
100 PM CST SUN DEC 10 2017

NOTE: "FAIR" INDICATES FEW OR NO CLOUDS BELOW 12,000 FEET WITH NO
SIGNIFICANT WEATHER AND/OR OBSTRUCTIONS TO VISIBILITY.


SDZ001>005-009-010-012>017-102000-
NORTHWEST AND NORTH CENTRAL SOUTH DAKOTA

CITY           SKY/WX    TMP DP  RH WIND       PRES   REMARKS
BUFFALO          N/A     52  17  25 W24G31    30.09F
FAITH            N/A     53  17  24 W22G29    30.11F
MOBRIDGE       SUNNY     47  25  42 NW9       30.04F
$$

SDZ012>016-024>037-041>051-057-063-072>074-102000-
SOUTHWEST AND SOUTH CENTRAL SOUTH DAKOTA

CITY           SKY/WX    TMP DP  RH WIND       PRES   REMARKS
RAPID CTY ARPT SUNNY     63   5  10 NW20      30.18F
PIERRE         SUNNY     53  19  26 NW18      30.09F
CUSTER         SUNNY     53  -1  11 NW14G22   30.25F
ELLSWORTH AFB  SUNNY     62   5  10 NW22G30   30.17F
PHILIP         SUNNY     62  11  13 NW24G32   30.13F
PINE RIDGE     SUNNY     50  18  28 W9        30.25F
SPEARFISH      FAIR      54   9  16 W18       30.23F
WINNER         FAIR      58  17  20 NW16G25   30.12F
$$

SDZ004>011-016>023-039-040-102000-
NORTHEAST SOUTH DAKOTA

CITY           SKY/WX    TMP DP  RH WIND       PRES   REMARKS
ABERDEEN       SUNNY     43  28  55 NW9       30.06F
WATERTOWN      SUNNY     37  28  70 W9        30.02F
BROOKINGS      SUNNY     37  27  67 NW14      30.05R
SISSETON         N/A     37  26  64 NW7       30.03F
$$

SDZ017-020-022-023-036>040-048>070-102000-
SOUTHEAST SOUTH DAKOTA

CITY           SKY/WX    TMP DP  RH WIND       PRES   REMARKS
SIOUX FALLS    MOSUNNY   41  29  62 NW14      30.06F
HURON          SUNNY     44  29  55 NW8       30.07S
CHAMBERLAIN    SUNNY     53  23  31 W13       30.10S
MITCHELL       SUNNY     46  29  51 NW9       30.10S
YANKTON        SUNNY     46  25  43 NW20      30.10S
$$

ABBREVIATIONS USED IN REMARKS
   TC - TEMPERATURE IN CELSIUS
  WCI - WIND CHILL INDEX
   HX - HEAT INDEX
  VSB - VISIBILITY





USA.gov is the U.S. government's official web portal to all federal, state and local government web resources and services.